Regional Weather Roundup
Issued by NWS

Home | Current Version | Previous Version | Text Only | Print | Product List | Glossary On
Versions: 1 2 3 4 5 6 7 8 9 10 11 12 13 14 15 16 17 18 19 20 21 22 23 24 25 26 27 28 29 30 31 32 33 34 35 36 37 38 39 40 41 42 43 44 45 46 47 48 49 50
592
ASUS44 KFWD 280001
RWRTX
NORTH TEXAS HOURLY WEATHER ROUNDUP
NATIONAL WEATHER SERVICE FORT WORTH TX
700 PM CDT WED JUL 27 2016

NOTE: "FAIR" INDICATES FEW OR NO CLOUDS BELOW 12,000 FEET WITH NO
SIGNIFICANT WEATHER AND/OR OBSTRUCTIONS TO VISIBILITY.

TXZ118-119-280100-
DALLAS/FORT WORTH METROPLEX

CITY           SKY/WX    TMP DP  RH WIND       PRES   REMARKS
DFW AIRPORT    CLOUDY    88  71  57 NE3       29.88R HX  94
6HR MIN TEMP:  86; 6HR MAX TEMP:  96;

DALLAS LOVE    CLOUDY    88  72  58 CALM      29.88S HX  94
6HR MIN TEMP:  82; 6HR MAX TEMP:  96; 6HR PCP: TRACE;

FTW MEACHAM    CLOUDY    87  69  54 W3        29.89R HX  91
6HR MIN TEMP:  87; 6HR MAX TEMP:  99;

FTW-ALLIANCE   PTSUNNY   86  70  58 E6        29.88F HX  90
6HR MIN TEMP:  83; 6HR MAX TEMP:  97; 6HR PCP: TRACE;

FTW-NAS-JRB    CLOUDY    84  72  67 W3        29.89S
6HR MIN TEMP:  84; 6HR MAX TEMP:  97; 6HR PCP:  0.14;

FTW-SPINKS     PTSUNNY   81  73  78 N3        29.90F
ARLINGTON      CLOUDY    88  71  57 E5        29.88F HX  94
6HR MIN TEMP:  85; 6HR MAX TEMP:  96; 6HR PCP: TRACE;

ADDISON        PTSUNNY   82  79  89 W5        29.90R HX  93
MESQUITE       SUNNY     88  72  58 N3        29.87F HX  94
LANCASTER      CLOUDY    87  75  67 CALM      29.89R HX  96
6HR MIN TEMP:  83; 6HR MAX TEMP:  99; 6HR PCP:  0.29;

$$

TXZ091>094-102>105-117-120-121-131>134-280100-
NORTH CENTRAL TEXAS

CITY           SKY/WX    TMP DP  RH WIND       PRES   REMARKS
SHRMAN/DENISON NOT AVBL
BOWIE          PTSUNNY   88  70  56 E7        29.91R HX  92
6HR MIN TEMP:  83; 6HR MAX TEMP:  96;

BRIDGEPORT     CLOUDY    83  74  73 SE8       29.91S
6HR MIN TEMP:  77; 6HR MAX TEMP:  94; 6HR PCP:  0.05;

DECATUR        CLOUDY    79  74  84 E6        29.92S
6HR MIN TEMP:  75; 6HR MAX TEMP:  94; 6HR PCP:  0.22;

DENTON         PTSUNNY   79  77  94 SW3       29.88F
6HR MIN TEMP:  73; 6HR MAX TEMP:  94; 6HR PCP:  1.52;

MCKINNEY       MOSUNNY   83  75  77 N5        29.89S HX  90
6HR MIN TEMP:  77; 6HR MAX TEMP:  91; 6HR PCP:  0.04;

GREENVILLE     CLOUDY    90  70  51 E3        29.89S HX  95
ROCKWALL       PTSUNNY   87  71  59 NW6       29.88S HX  92
6HR MIN TEMP:  86; 6HR MAX TEMP:  94;

TERRELL        CLOUDY    88  75  65 N5        29.87F HX  97
6HR MIN TEMP:  84; 6HR MAX TEMP:  97; 6HR PCP: TRACE;

WAXAHACHIE     LGT RAIN  81  74  78 SE6       29.90S
6HR MIN TEMP:  77; 6HR MAX TEMP:  97; 6HR PCP:  0.29;

CLEBURNE       DRIZZLE   86  70  58 SW6G13    29.91R HX  90
GRANBURY       CLOUDY    86  72  62 CALM      29.90S HX  91
6HR MIN TEMP:  86; 6HR MAX TEMP: 100;

$$

TXZ083>090-098>101-113>116-127>130-139>142-154-155-280100-
WESTERN NORTH TEXAS

CITY           SKY/WX    TMP DP  RH WIND       PRES   REMARKS
WICHITA FALLS  MOSUNNY   93  71  48 SE14      29.86F HX 100
6HR MIN TEMP:  78; 6HR MAX TEMP:  97; 6HR PCP:  0.10;

WF-KICKAPOO    SUNNY     95  68  42 SE14      29.88R HX  99
6HR MIN TEMP:  94; 6HR MAX TEMP:  99;

VERNON         SUNNY     97  53  22 E5        29.88R HX  94
6HR MIN TEMP:  74; 6HR MAX TEMP: 100;

ABILENE        MOSUNNY   93  66  40 SE13      29.91F HX  96
6HR MIN TEMP:  84; 6HR MAX TEMP:  95; 6HR PCP:  0.01;

ABILENE-DYESS  MOSUNNY   94  66  38 SE10      29.89F HX  97
6HR MIN TEMP:  82; 6HR MAX TEMP:  96; 6HR PCP: TRACE;

CISCO          CLOUDY    84  75  74 E7        29.93F HX  92
GRAHAM         MOSUNNY   89  73  59 SE7       29.88F HX  97
6HR MIN TEMP:  80; 6HR MAX TEMP: 100;

MINERAL WELLS  CLOUDY    82  74  76 S10       29.89R
6HR MIN TEMP:  81; 6HR MAX TEMP:  98; 6HR PCP:  0.09;

STEPHENVILLE   CLOUDY    77  69  76 W7        29.95R
6HR MIN TEMP:  77; 6HR MAX TEMP:  97;

COMANCHE       CLOUDY    93  66  40 E7        29.92R HX  96
6HR MIN TEMP:  88; 6HR MAX TEMP:  97;

BROWNWOOD      LGT RAIN  93  64  38 S22G28    29.91R HX  95
COLEMAN        CLOUDY    92  63  37 N12       29.92R HX  93
6HR MIN TEMP:  91; 6HR MAX TEMP:  98;

$$

TXZ143>147-156>162-174-175-280100-
CENTRAL TEXAS

CITY           SKY/WX    TMP DP  RH WIND       PRES   REMARKS
WACO           PTSUNNY   86  71  60 S13       29.88F HX  91
6HR MIN TEMP:  86; 6HR MAX TEMP:  98;

WACO-MCGREGOR  LGT RAIN  80  75  84 S10       29.90S
6HR MIN TEMP:  79; 6HR MAX TEMP: 101;

HILLSBORO      MOSUNNY   86  72  64 S10       29.89S HX  92
6HR MIN TEMP:  83; 6HR MAX TEMP:  94; 6HR PCP:  0.06;

CORSICANA      SUNNY     89  71  55 S12       29.89F HX  95
6HR MIN TEMP:  89; 6HR MAX TEMP:  96;

MEXIA          MOSUNNY   86  73  65 S15G22    29.89S HX  93
6HR MIN TEMP:  83; 6HR MAX TEMP:  96;

HEARNE         MOSUNNY   89  73  58 S9        29.92S HX  96
6HR MIN TEMP:  86; 6HR MAX TEMP:  95;

CAMERON        CLOUDY    87  72  60 S18G25    29.91R HX  94
6HR MIN TEMP:  87; 6HR MAX TEMP:  98;

TEMPLE         MOSUNNY   94  71  47 S17G23    29.90R HX 101
6HR MIN TEMP:  90; 6HR MAX TEMP:  97;

KILLEEN        NOT AVBL
KILLEEN-SKYLRK SUNNY     88  72  58 SW14G22   29.92R HX  94
6HR MIN TEMP:  86; 6HR MAX TEMP:  94;

FORT HOOD      SUNNY     88  70  55 SW18      29.89R HX  92
6HR MIN TEMP:  84; 6HR MAX TEMP:  92; 6HR PCP:  0.01;

HAMILTON       PTSUNNY   88  69  52 SW18      29.93R HX  92
6HR MIN TEMP:  88; 6HR MAX TEMP:  98;

$$

TXZ095>097-106>112-122>126-135>138-148>153-164>167-280100-
EAST TEXAS

CITY           SKY/WX    TMP DP  RH WIND       PRES   REMARKS
PARIS          PTSUNNY   77  64  65 SE8       29.91S
6HR MIN TEMP:  77; 6HR MAX TEMP:  97;

SULPHUR SPRNGS HVY RAIN  76  73  87 SE8       29.95R
6HR MIN TEMP:  76; 6HR MAX TEMP:  96; 6HR PCP:  0.29;

MOUNT PLEASANT CLOUDY    75  74  96 E3        29.93S
6HR MIN TEMP:  75; 6HR MAX TEMP:  98;

GILMER         TSTM      73  72  96 W5        29.97R
6HR MIN TEMP:  73; 6HR MAX TEMP:  96; 6HR PCP:  1.22;

MINEOLA        CLOUDY    82  73  74 N5        29.91R
TYLER          SUNNY     90  73  57 S14       29.90R HX  98
6HR MIN TEMP:  90; 6HR MAX TEMP:  97;

LONGVIEW       CLOUDY    80  71  74 N13G21    29.93R HAZE
6HR MIN TEMP:  80; 6HR MAX TEMP:  96;

MARSHALL       CLOUDY    75  71  86 N9G17     29.97R
6HR MIN TEMP:  75; 6HR MAX TEMP:  93;

ATHENS         SUNNY     88  72  58 S10       29.88S HX  94
PALESTINE      SUNNY     89  74  60 S7        29.91S HX  97
JACKSONVILLE   SUNNY     88  71  57 SW9       29.93S HX  93
HENDERSON      CLOUDY    87  73  62 S7        29.92R HX  93
6HR MIN TEMP:  85; 6HR MAX TEMP:  92;

CENTER         PTCLDY    85  75  71 S9        29.94S HX  93
6HR MIN TEMP:  77; 6HR MAX TEMP:  93; 6HR PCP:  0.19;

NACOGDOCHES    SUNNY    N/A N/A N/A S13       29.90S
LUFKIN         SUNNY     84  74  71 S13       29.92F HX  91
6HR MIN TEMP:  76; 6HR MAX TEMP:  85; 6HR PCP:  0.12;

$$

SUPPLEMENTAL OBSERVATIONS (CENTRAL)

CITY           SKY/WX    TMP DP  RH WIND       PRES   REMARKS
$$

SUPPLEMENTAL OBSERVATIONS (WEST)

CITY           SKY/WX    TMP DP  RH WIND       PRES   REMARKS
$$

SUPPLEMENTAL OBSERVATIONS (EAST)

CITY           SKY/WX    TMP DP  RH WIND       PRES   REMARKS
$$

SUPPLEMENTAL OBSERVATIONS ARE A COLLECTION OF AUTOMATED INSTRUMENTS
THAT ARE MAINTAINED BY A VARIETY OF FEDERAL AND STATE AGENCIES.
CERTAIN ELEMENTS...SUCH AS HUMIDITY VALUES AND SUSTAINED WIND
SPEEDS...MAY BE APPROXIMATED.





USA.gov is the U.S. government's official web portal to all federal, state and local government web resources and services.